Wind_Speed
5 5 8 11 11 11 11 12 12 12 11 10 10 10 12 12 13 13 14 12 10 10 9 10 10 10 10 10 10 11 12 12 12 13 14 15 16 16 16 16 16 16 15 14 14 14 14 15 15 15 15 17 17 17 17 16 17 17 18 18 18 18 18 18 19 20 20 21 22 24 26 26 26 25 23 22 22 22 21 20 20 19 18 18 17
3 5 9 12 12 11 11 11 12 12 12 11 11 11 12 12 13 14 15 13 12 11 11 12 12 11 11 11 11 12 12 12 12 13 14 15 16 16 16 17 16 16 15 15 14 14 15 15 15 15 16 16 16 16 15 15 16 16 17 17 17 17 17 18 18 19 20 21 22 24 26 27 27 28 26 24 23 23 23 21 21 21 20 19 18
3 5 10 13 13 12 11 12 12 13 13 12 11 12 12 13 14 15 16 15 13 13 13 14 13 12 12 12 12 13 12 12 12 12 13 15 15 16 16 17 16 16 15 15 14 14 15 16 15 15 16 16 15 15 15 15 15 15 16 16 16 16 17 17 18 19 20 21 22 24 26 27 27 27 28 26 24 24 23 23 22 22 22 21 20
4 5 9 12 13 13 12 12 13 13 13 12 12 12 13 14 15 16 17 17 15 15 15 16 15 14 13 13 12 13 12 12 12 12 13 14 15 16 16 16 16 16 15 15 15 14 15 16 16 15 15 15 14 14 14 14 14 14 15 15 16 16 17 17 18 19 20 21 23 24 25 27 27 27 28 28 27 25 24 23 23 23 23 22 21
5 6 7 11 12 13 12 13 13 13 12 11 12 12 14 14 15 17 18 18 17 17 17 17 16 16 14 13 13 13 13 13 12 12 12 13 15 16 16 16 17 16 15 15 15 15 15 16 16 15 15 15 14 13 13 13 13 13 14 14 15 15 16 17 17 19 20 21 23 24 26 27 26 26 27 28 28 28 25 24 24 24 24 23 22
7 6 5 9 11 12 13 14 14 13 12 11 12 13 14 15 17 18 20 20 18 18 17 18 18 17 16 14 13 13 13 13 13 12 12 13 14 16 17 17 17 17 16 15 15 15 15 16 16 16 15 14 13 13 12 13 12 12 13 13 13 14 15 16 17 18 19 21 22 24 26 26 25 25 26 27 28 29 28 26 25 24 24 23 23
8 6 6 8 9 11 13 13 14 13 12 12 12 13 15 16 17 19 20 20 19 18 18 19 18 18 17 16 14 13 13 13 13 13 13 13 13 15 17 17 17 17 17 16 15 15 15 16 16 16 15 13 12 12 11 11 11 11 11 11 12 12 13 14 15 17 19 21 22 23 25 25 24 25 25 26 27 28 29 28 27 26 24 23 23
8 8 7 8 8 10 12 13 13 13 13 12 12 13 15 16 17 19 20 21 20 19 19 19 19 19 18 16 15 14 13 13 13 13 13 13 13 14 16 16 17 17 17 16 16 15 15 15 16 15 15 13 12 12 11 10 10 9 9 10 10 10 11 12 14 16 18 20 21 23 24 24 23 24 24 24 26 27 28 28 28 28 27 25 23
9 9 9 9 9 10 11 12 13 13 13 12 13 14 15 16 17 19 20 20 20 19 19 19 19 19 18 17 15 14 14 13 13 13 13 12 12 13 14 16 17 17 17 17 17 16 16 16 16 16 15 14 13 11 10 9 9 9 8 9 9 9 10 12 13 14 16 18 20 22 22 21 22 22 23 23 24 26 27 27 28 28 28 27 26
8 9 10 10 10 10 11 11 12 13 13 13 13 14 14 15 17 18 19 20 20 20 19 19 19 19 18 18 16 15 14 13 13 13 13 12 12 13 14 15 17 17 18 18 18 18 17 17 17 17 16 15 13 12 11 10 8 8 8 8 7 7 9 11 11 11 14 17 19 19 19 19 20 21 21 22 24 25 25 26 27 27 27 27 27
8 9 9 9 9 10 10 11 12 13 13 13 13 13 13 14 15 16 18 19 20 20 19 19 18 18 18 18 17 15 14 13 13 12 12 12 12 12 13 15 17 18 18 19 19 19 19 18 18 17 17 16 14 13 12 10 9 8 8 8 7 7 7 9 10 10 13 16 16 17 17 17 18 19 19 20 22 23 24 24 25 25 25 26 26
7 8 8 7 7 8 10 11 11 12 13 13 13 12 12 12 14 16 17 18 20 21 20 19 18 18 18 18 17 15 14 13 13 13 12 12 11 12 13 14 16 18 19 19 19 19 19 19 19 19 18 17 15 14 13 12 10 9 8 7 7 6 6 8 10 8 11 14 14 15 15 15 17 17 17 18 20 20 21 22 23 24 24 24 25
8 7 7 6 7 8 9 10 10 12 12 13 13 12 12 11 13 15 17 18 19 21 20 19 18 18 18 18 18 16 15 14 13 13 12 12 11 11 12 13 15 17 19 20 20 20 20 20 20 20 19 18 16 15 13 12 11 10 9 8 7 6 6 7 9 7 9 12 12 13 13 14 15 15 16 16 17 18 19 20 21 22 22 23 23
7 7 6 6 7 9 10 10 10 11 11 12 13 12 11 11 12 14 16 17 19 20 20 20 19 18 18 18 18 16 15 14 13 12 10 10 10 10 10 11 14 16 18 20 20 21 21 21 21 21 20 19 17 16 14 13 12 11 10 8 7 7 6 6 8 6 7 10 10 11 11 12 13 13 14 15 15 16 17 18 18 19 20 21 21
6 5 5 6 8 9 10 10 10 10 10 12 11 11 11 11 12 13 15 16 18 19 20 20 20 19 18 18 17 16 15 14 13 11 9 9 9 8 9 9 11 13 16 19 21 22 22 22 22 22 21 21 19 17 15 14 13 12 11 9 8 8 7 6 7 6 6 7 8 9 10 10 10 11 12 13 14 14 15 16 16 17 18 19 19
4 4 4 6 7 9 10 10 10 11 12 12 11 10 10 11 11 12 14 15 17 18 20 20 20 19 18 16 16 16 15 13 12 10 9 9 8 6 6 7 9 10 12 15 19 22 23 23 23 23 23 22 21 19 17 15 14 13 12 11 10 9 9 7 7 7 5 6 6 7 8 8 8 9 10 11 12 12 13 14 14 15 15 16 17
3 3 4 6 7 9 9 9 10 12 12 11 11 10 10 11 11 12 13 15 17 17 19 20 19 18 17 15 16 16 14 13 11 10 8 7 6 5 5 6 7 9 9 11 15 19 22 24 24 24 24 23 22 21 19 17 16 15 14 13 12 12 10 9 7 7 6 5 5 6 6 6 6 7 8 9 9 10 11 12 13 13 14 14 15
3 3 5 6 7 8 8 9 10 12 12 11 11 11 11 12 11 12 13 15 16 17 18 19 19 17 16 15 16 15 14 12 11 9 7 5 5 3 4 5 6 8 9 9 11 14 18 22 25 25 25 25 24 23 21 20 18 17 16 15 14 14 12 11 10 7 6 6 5 4 4 4 4 4 5 6 7 8 9 10 11 11 12 13 13
3 4 5 6 6 6 7 8 10 12 12 11 12 12 12 12 11 12 13 14 16 17 18 19 18 16 16 15 14 14 12 11 9 7 5 5 4 3 4 5 6 8 8 8 9 10 13 18 23 26 26 26 26 24 23 22 21 20 18 17 16 16 14 13 12 10 8 7 6 4 3 3 2 1 1 3 4 5 6 7 8 9 10 11 12
5 5 6 7 7 6 6 6 9 12 11 12 13 14 13 12 12 12 13 14 16 18 18 18 17 16 16 15 13 12 11 9 7 5 4 4 4 3 4 4 5 7 8 9 9 10 11 13 18 24 27 27 27 26 25 23 23 22 20 19 19 19 16 14 14 12 10 8 7 6 5 4 3 3 2 3 3 3 4 4 5 7 8 9 10
6 6 7 7 7 8 7 6 8 10 11 13 14 14 13 12 12 13 13 15 16 17 18 18 17 16 15 14 13 12 11 9 6 4 3 4 6 4 4 4 5 7 8 9 10 10 11 11 13 19 24 27 27 27 26 25 24 23 22 21 21 21 18 17 16 14 13 12 11 10 9 8 7 6 5 5 4 4 5 5 5 5 5 6 7
7 7 8 8 8 8 7 7 9 10 12 14 15 14 13 12 13 13 14 15 16 16 17 17 17 15 14 13 13 12 10 7 4 3 4 6 8 5 4 5 6 7 8 9 10 10 10 11 10 13 18 24 27 27 27 26 24 23 22 21 22 23 20 20 18 16 15 15 15 14 12 12 11 9 8 7 7 6 6 6 6 5 5 5 5
8 8 9 9 8 8 8 9 10 11 13 15 16 15 13 13 14 13 13 14 15 16 16 17 16 14 13 13 13 11 9 6 4 4 6 9 9 5 5 6 6 7 7 8 8 8 9 10 9 9 12 18 24 26 26 26 25 23 22 21 22 23 22 22 20 18 18 18 18 17 16 15 14 13 11 10 9 8 8 8 7 7 6 6 5
8 9 10 10 7 6 8 9 10 11 13 15 16 15 14 14 15 14 14 14 15 15 16 17 15 14 14 14 13 11 10 8 7 7 9 11 8 5 5 6 6 6 7 7 7 7 8 9 9 9 9 13 19 23 25 24 24 23 22 20 22 24 23 22 21 20 20 20 20 20 18 17 16 16 14 13 12 11 10 10 9 8 8 7 7
8 9 10 9 6 5 7 9 10 11 13 15 16 16 15 15 15 14 14 15 15 16 16 16 15 15 14 13 13 11 10 9 9 9 11 10 7 5 5 5 5 6 7 7 6 6 7 9 10 10 9 10 14 19 22 22 23 22 21 20 22 24 23 22 22 21 21 21 21 21 20 19 18 18 17 16 15 14 13 12 11 10 9 9 8
9 9 9 8 5 5 7 8 9 12 13 14 16 16 16 15 15 15 15 15 16 16 17 17 17 15 14 13 12 11 10 10 9 10 10 9 7 6 5 5 5 6 7 7 6 6 7 8 10 10 9 9 11 15 19 20 21 21 20 19 22 24 23 22 22 22 22 22 22 21 21 21 20 20 20 19 18 17 16 15 14 12 11 10 9
8 8 8 8 6 6 7 8 9 11 12 14 17 17 17 16 16 16 16 16 17 18 19 18 16 14 13 12 11 11 11 10 10 9 8 8 6 5 5 5 5 5 7 8 7 5 6 7 9 10 10 10 10 12 16 19 20 21 21 22 24 24 23 22 22 22 22 21 21 21 21 21 21 21 22 21 21 19 18 17 16 15 14 13 11
8 8 8 8 8 7 7 9 10 11 13 15 17 18 17 16 17 17 16 16 19 20 20 18 15 13 12 12 12 11 11 10 10 8 7 7 5 5 5 5 4 5 7 7 6 5 4 6 8 10 11 12 11 11 13 16 17 20 21 22 24 23 22 22 22 22 22 22 22 21 21 22 22 22 23 23 22 21 20 18 17 17 16 15 14
8 8 8 9 8 8 7 9 11 13 15 15 15 16 15 15 16 15 14 17 20 20 19 16 14 13 12 11 11 10 9 9 8 7 7 6 5 5 5 4 3 4 5 6 5 4 4 5 7 9 11 12 13 12 13 14 15 18 19 19 21 21 21 22 21 21 22 22 22 22 22 23 23 23 23 23 22 21 20 20 19 18 18 17 16
8 8 8 8 8 7 7 10 13 14 15 13 13 14 14 13 13 12 13 15 17 18 19 18 16 13 10 9 9 8 7 7 6 5 5 5 6 5 4 3 3 3 4 5 5 4 5 5 6 8 10 12 14 14 15 16 16 16 17 17 18 18 18 18 18 18 20 21 22 22 23 23 23 23 22 22 21 20 20 21 20 20 19 18 17
8 8 8 8 7 7 8 11 12 14 14 11 11 13 12 11 11 11 12 13 13 13 13 15 15 11 9 8 8 8 7 7 6 4 5 6 5 5 4 3 4 4 4 5 5 6 6 6 7 8 10 12 14 15 15 14 14 14 14 15 14 14 15 14 14 17 19 19 20 20 20 20 21 21 21 20 20 19 19 20 21 21 20 19 18
8 7 7 8 7 6 8 10 10 11 12 12 12 12 11 10 11 9 10 10 10 12 12 11 10 8 8 7 7 9 8 7 6 5 6 6 5 4 4 4 4 4 4 5 6 7 8 9 7 7 9 10 13 16 13 10 11 13 12 12 12 12 14 14 14 16 17 18 19 19 18 18 18 18 18 18 17 18 18 20 21 21 21 20 19
8 7 9 8 7 6 7 8 6 7 10 13 13 10 8 9 9 7 8 8 9 13 12 10 8 7 8 7 8 9 9 8 6 5 6 6 5 4 5 4 4 3 4 6 7 7 8 9 8 7 9 10 13 13 9 9 10 11 10 10 10 11 13 14 14 14 15 17 18 19 19 17 15 14 15 15 16 17 17 19 20 20 20 19 19
8 8 9 7 5 3 4 4 3 5 7 8 9 8 8 10 10 9 9 10 11 11 10 10 9 8 9 8 8 8 8 8 7 6 6 5 5 6 5 4 4 4 4 6 7 7 6 8 9 9 11 12 12 8 7 8 9 9 9 9 10 10 10 11 11 11 13 14 16 18 16 12 10 11 12 14 14 15 16 17 18 19 19 19 19
9 8 6 3 2 2 3 2 3 7 8 9 11 12 12 13 13 11 10 10 10 8 7 8 8 8 9 8 8 8 7 7 6 7 6 5 6 6 6 5 5 5 4 5 6 6 6 7 8 8 10 10 9 7 6 7 8 9 9 9 9 9 8 8 8 9 10 12 15 15 8 4 6 9 10 11 11 12 13 15 17 18 18 19 19
8 7 2 1 0 3 4 4 8 11 12 14 14 13 12 13 14 12 10 9 9 8 8 8 6 6 7 8 8 8 7 7 7 8 7 6 6 6 5 6 6 5 5 5 6 6 7 8 7 7 8 8 8 7 7 8 8 8 8 9 9 9 9 8 8 8 9 12 15 10 3 1 5 8 8 9 9 10 12 13 15 16 17 18 19
6 6 1 3 4 6 8 9 12 14 16 15 14 13 12 13 14 12 10 9 8 8 9 9 6 5 5 7 8 7 6 7 7 8 8 6 6 6 6 6 7 6 5 6 6 7 9 9 7 8 7 7 8 8 8 9 8 8 7 8 8 8 9 8 7 7 8 12 11 3 1 2 4 5 6 8 9 10 11 12 13 15 16 17 17
5 4 3 6 9 10 12 14 14 15 16 16 15 15 14 14 14 12 11 9 7 6 6 6 5 4 2 3 5 4 5 6 6 7 7 6 6 6 7 7 7 6 6 6 6 8 9 9 7 7 8 7 7 8 9 9 8 7 6 7 7 6 7 6 6 6 7 10 7 2 0 2 2 3 5 6 7 8 10 10 12 14 15 16 16
6 5 5 8 13 13 14 14 12 13 14 15 15 15 16 15 14 13 11 9 7 6 6 5 5 4 2 1 1 2 4 5 5 5 6 6 7 7 7 7 6 5 5 5 7 8 9 9 8 7 9 10 8 8 9 8 7 7 6 7 6 5 6 6 6 6 7 9 6 3 3 3 3 3 3 4 6 6 8 10 11 12 13 15 16
6 4 5 11 15 13 13 12 11 12 13 13 15 17 18 18 17 14 12 11 10 9 9 7 6 5 3 1 1 2 4 5 5 5 6 6 7 7 7 7 6 5 5 5 7 9 9 10 10 9 10 11 9 8 7 7 8 9 8 8 7 6 6 6 6 7 7 8 7 5 5 5 4 4 4 5 5 5 6 7 8 9 11 13 15
4 4 8 11 12 11 11 11 12 13 12 13 17 19 20 20 18 15 13 13 13 12 11 9 9 7 4 2 2 1 2 3 4 5 6 6 6 7 7 7 7 7 6 6 8 10 10 10 10 10 11 9 8 8 7 8 10 10 9 8 8 8 7 7 7 8 7 8 8 7 6 6 6 5 5 6 4 4 5 4 5 6 7 10 12
5 6 9 8 8 10 12 12 13 12 12 15 19 21 21 19 16 14 13 13 13 14 13 11 11 10 8 6 4 3 3 4 4 5 6 7 7 6 7 7 7 7 7 7 8 10 11 10 9 10 10 8 8 8 8 9 9 9 9 8 8 9 9 8 8 8 8 9 9 8 8 7 6 5 4 4 4 4 3 2 3 4 5 7 8
5 5 7 7 8 12 13 13 13 12 14 18 19 20 20 17 15 14 13 13 13 14 13 12 12 11 10 10 9 7 6 5 4 5 6 6 7 6 7 7 7 8 8 8 9 11 11 10 10 10 10 9 9 9 9 10 10 10 10 10 10 9 9 9 9 9 9 9 9 8 9 7 5 5 3 2 3 3 2 1 3 4 4 5 7
4 6 7 7 9 12 13 12 13 14 17 19 19 20 20 18 16 14 13 12 12 12 12 12 11 11 10 10 12 11 8 6 3 3 4 5 6 6 6 6 6 8 8 8 9 11 12 11 10 11 10 10 10 10 9 10 11 11 10 10 10 9 8 9 10 10 9 7 7 7 8 6 4 3 2 1 1 2 2 2 3 4 4 5 7
5 7 8 9 11 12 12 12 14 16 19 19 19 20 20 19 16 13 12 11 10 10 10 10 9 9 9 9 10 11 11 8 5 2 2 3 4 5 5 5 6 7 8 9 9 11 12 11 11 11 11 11 11 11 10 10 11 11 11 11 9 8 7 8 9 11 10 8 7 7 7 4 2 1 2 2 2 3 4 4 4 5 5 4 4
8 9 10 11 12 12 11 11 13 15 18 18 17 18 17 16 15 12 10 9 8 7 7 7 7 6 6 7 8 10 10 9 7 4 0 2 3 4 5 6 7 6 8 9 9 10 10 10 10 10 10 10 11 11 11 10 10 11 11 11 9 7 7 8 9 11 10 9 9 9 7 5 3 2 3 4 5 5 5 5 5 4 4 4 3
10 10 10 12 14 13 12 11 12 14 16 16 16 15 13 14 15 13 10 8 6 5 5 4 4 4 4 5 6 7 8 8 7 6 3 1 3 5 6 8 8 7 8 8 9 9 9 10 10 10 9 9 10 12 11 10 10 11 11 11 10 8 8 8 9 9 10 10 9 8 6 4 3 4 4 4 5 5 4 3 2 2 3 5 4
12 11 10 11 14 14 13 11 11 13 14 16 16 13 11 13 15 12 8 6 5 3 3 1 1 2 2 3 4 4 5 6 6 6 5 3 2 5 7 8 8 9 9 9 9 9 9 9 10 10 9 10 11 12 12 11 11 12 12 13 11 10 9 10 10 9 9 10 9 8 6 4 4 5 5 4 3 2 2 1 1 2 2 3 3
13 12 10 11 14 15 13 10 10 11 12 14 14 12 11 13 12 9 7 6 4 2 1 0 2 3 3 3 3 4 4 4 5 6 6 5 3 2 3 5 8 9 10 10 10 10 10 10 10 11 11 12 13 13 13 12 12 13 12 13 12 11 11 11 10 10 9 8 7 7 6 5 5 6 6 5 1 3 4 3 2 3 2 1 1
13 13 12 13 16 15 13 10 10 11 11 11 12 12 13 12 10 8 7 5 4 2 2 2 4 4 5 5 5 5 4 4 3 4 5 5 4 4 3 3 6 8 10 12 12 12 10 10 10 11 12 13 13 12 13 13 13 12 11 11 11 10 10 10 10 10 9 7 7 8 7 6 6 5 5 4 2 5 5 4 3 4 4 2 2
12 13 13 14 16 15 12 11 12 13 13 12 13 14 15 14 11 10 9 7 5 4 4 4 5 6 7 7 7 7 6 5 4 2 3 4 4 5 4 3 3 4 8 12 13 11 10 9 9 9 11 12 11 12 12 13 13 12 11 10 9 9 9 9 10 10 9 9 8 8 8 8 6 4 4 2 3 7 6 3 2 3 3 3 3
Wind_Direction
191 208 217 218 218 219 225 219 216 212 214 218 219 220 219 217 212 209 207 204 192 179 167 157 149 139 128 124 122 123 127 132 139 145 149 151 153 156 156 154 152 151 150 148 144 138 133 129 122 119 118 116 110 105 101 96 92 88 85 84 84 84 84 84 84 84 81 79 77 74 70 65 63 63 65 66 65 65 67 70 74 76 80 85 91
182 223 221 218 215 216 222 218 216 212 214 216 219 220 220 218 213 210 207 202 192 183 171 160 153 144 132 127 122 124 129 135 143 149 154 156 158 161 160 157 156 156 155 152 148 142 138 134 127 124 124 119 115 111 107 102 97 93 92 91 90 89 88 86 85 84 82 79 76 75 72 67 63 62 63 65 66 67 68 70 74 77 79 82 86
153 218 215 215 214 214 217 216 213 210 213 214 219 220 220 219 214 211 205 200 193 185 174 165 157 149 139 133 126 125 130 136 145 150 156 159 163 166 164 161 160 161 160 156 152 147 143 139 132 130 128 124 121 118 114 110 105 102 99 96 94 92 90 88 86 84 82 80 77 75 73 70 65 63 63 65 66 68 70 70 73 76 78 80 83
171 206 208 211 215 216 215 212 210 209 211 213 219 221 221 219 216 212 205 199 193 187 177 170 162 154 147 140 134 130 131 136 143 150 158 162 167 170 169 166 164 165 164 161 157 152 149 144 137 135 133 129 126 123 119 115 112 109 105 102 99 94 91 88 86 85 83 81 78 76 74 72 68 65 64 64 66 67 70 71 72 74 76 79 81
181 200 207 212 218 217 212 208 208 208 209 214 220 221 220 219 217 213 206 200 194 189 180 175 168 160 154 148 142 137 136 138 143 150 159 165 169 173 174 171 169 170 169 167 162 157 154 149 143 140 137 135 132 129 125 121 118 114 111 107 103 97 93 91 89 87 84 82 80 78 75 73 70 67 65 65 65 67 68 70 72 73 74 77 79
186 202 209 217 220 216 210 206 206 207 210 215 220 221 219 218 217 214 208 202 195 191 184 180 174 167 161 156 151 147 144 143 145 151 159 168 172 175 178 177 175 174 173 172 167 163 160 156 149 145 142 140 139 136 132 128 123 118 115 112 107 100 96 93 91 89 87 84 81 79 77 74 72 69 67 66 66 67 67 69 71 72 74 75 77
193 199 201 214 214 213 210 205 206 208 212 216 220 220 220 220 218 216 211 203 197 193 188 184 180 175 168 162 160 157 152 148 148 152 159 167 174 178 181 182 180 177 177 177 172 168 166 162 155 150 147 147 148 143 139 135 129 123 118 115 109 104 102 96 92 91 88 85 82 80 78 75 73 71 69 68 67 67 67 68 69 71 73 74 76
190 189 192 202 202 209 208 206 208 210 215 217 220 222 222 222 220 217 213 206 200 196 193 190 186 182 175 169 166 165 159 153 152 153 159 165 173 179 182 185 184 181 180 181 178 174 171 168 162 157 154 154 156 150 147 142 138 133 126 121 116 111 109 103 97 94 89 87 83 80 77 75 74 72 71 70 69 68 68 67 68 69 71 72 74
182 187 190 192 195 202 204 207 210 214 217 219 222 224 224 224 222 219 214 208 203 199 196 194 191 188 182 176 173 172 165 159 156 154 160 164 171 179 184 187 188 186 184 184 183 179 176 175 171 165 162 163 164 159 155 151 147 144 138 133 125 119 114 106 100 96 94 90 83 77 76 76 75 73 71 71 71 70 69 68 68 68 69 70 71
186 193 196 197 196 198 202 210 214 219 220 223 225 226 228 227 226 222 216 212 207 204 200 197 195 193 188 182 181 179 170 164 161 159 162 166 171 178 184 189 191 191 191 190 187 183 180 181 180 173 170 171 170 167 164 159 157 154 151 147 138 132 124 111 103 102 98 89 80 76 75 77 75 73 72 73 72 71 70 69 69 68 68 69 70
196 200 203 205 204 208 210 216 219 223 224 226 228 230 233 233 232 226 221 216 212 209 205 202 198 197 193 189 188 186 178 169 167 165 165 167 173 178 184 190 194 195 196 196 192 188 185 186 186 181 178 178 177 175 172 168 166 165 161 158 154 148 137 118 107 106 100 88 82 81 78 76 73 71 72 73 73 73 72 71 70 69 68 68 68
201 205 211 216 218 224 225 228 228 229 230 230 232 235 238 239 237 231 227 222 217 214 210 206 202 200 197 195 195 192 185 176 172 171 170 169 172 179 185 192 197 199 200 200 196 193 190 190 191 188 186 184 184 182 179 177 175 174 172 168 165 163 153 127 114 111 104 94 88 85 79 75 73 69 69 70 71 73 73 72 71 70 68 67 67
209 211 220 229 235 239 241 241 239 238 238 238 239 240 242 243 240 235 231 227 223 219 214 210 206 204 200 199 199 196 191 184 179 178 177 173 172 177 184 193 199 203 205 204 201 198 195 195 195 194 193 191 191 190 186 184 183 183 182 176 174 173 169 141 121 119 112 101 95 89 82 77 74 70 66 65 66 69 70 71 71 71 70 68 67
214 224 233 240 250 251 254 256 253 250 249 251 250 250 249 246 241 237 235 231 227 222 218 214 211 208 205 203 202 199 194 188 184 185 186 179 176 176 180 191 199 205 207 208 206 203 200 200 200 199 198 196 196 197 195 192 191 191 190 185 182 183 188 163 131 134 130 111 101 93 85 78 73 70 67 64 63 63 66 67 68 69 69 68 67
221 235 248 257 264 260 262 266 266 266 268 267 261 255 248 242 239 237 237 234 230 225 221 217 214 212 209 207 205 201 196 191 187 190 194 184 180 177 179 189 198 204 209 212 210 207 204 203 204 203 203 201 200 201 201 200 199 198 197 193 191 194 204 189 150 149 146 123 111 99 87 79 73 70 68 64 62 59 60 60 62 64 65 66 65
232 245 264 274 277 271 266 264 267 274 276 270 259 252 246 242 240 238 237 235 231 226 222 219 215 214 211 207 205 204 200 194 190 191 195 188 182 179 186 192 196 201 208 214 215 212 208 206 206 206 207 206 204 204 205 206 207 205 203 201 199 201 210 209 175 157 158 144 126 109 95 85 77 71 67 64 61 59 57 55 54 56 58 60 61
248 273 281 281 284 279 270 268 271 275 271 261 253 250 249 247 243 238 236 234 231 225 222 219 215 214 211 207 206 205 200 194 194 192 193 196 189 183 198 201 198 204 210 214 217 216 212 209 208 209 209 209 208 207 208 211 213 212 209 208 207 208 210 218 206 173 169 170 149 128 113 96 82 72 67 65 62 59 57 53 49 48 49 51 53
259 272 277 279 286 280 269 270 273 272 261 251 251 250 247 244 242 233 230 231 228 225 223 219 215 213 210 208 205 202 196 192 191 187 191 211 212 195 206 207 205 211 215 217 218 219 217 212 210 211 211 211 211 211 212 214 217 218 216 215 215 216 213 219 223 202 188 193 191 169 143 121 95 74 64 62 60 58 56 53 49 45 42 42 43
261 268 273 276 280 269 260 268 274 268 251 245 249 246 243 241 239 229 226 227 227 227 225 221 216 211 210 207 203 197 189 186 182 179 195 229 240 213 212 213 212 216 220 224 225 224 222 216 212 213 213 213 213 213 215 217 220 223 222 221 223 223 218 220 228 224 213 209 213 214 193 175 155 103 40 33 40 46 48 48 47 44 39 36 34
272 276 272 270 272 265 262 271 276 265 240 235 242 242 243 241 235 225 224 226 225 227 225 222 215 208 208 204 198 189 178 173 168 178 212 257 265 223 215 220 218 222 224 229 232 232 228 221 215 213 214 215 215 215 217 219 222 225 226 227 229 230 224 223 230 234 235 230 227 232 235 232 232 243 277 305 327 350 5 19 27 29 31 32 28
276 280 276 268 267 264 260 258 261 249 226 228 236 239 241 238 231 223 223 224 222 222 220 217 210 204 201 197 191 178 169 164 162 189 220 274 272 236 223 229 226 227 228 233 238 241 240 232 221 214 214 215 216 218 218 221 223 226 228 230 233 234 230 229 232 236 244 248 247 246 247 248 250 253 265 278 291 308 320 329 337 349 1 11 16
277 282 276 266 262 263 259 247 243 234 223 230 237 241 242 239 232 226 223 220 219 218 214 210 205 199 193 190 182 169 163 157 163 198 218 264 270 254 244 243 240 237 233 236 240 244 247 243 232 218 215 215 216 218 219 221 224 227 229 232 236 237 234 234 235 238 245 252 254 253 251 253 254 256 261 268 276 287 298 305 311 317 323 334 346
277 278 271 265 262 267 266 250 239 230 227 234 241 244 244 240 233 226 220 216 217 214 208 205 198 191 188 182 173 166 165 169 197 218 231 254 261 257 257 252 249 245 240 240 241 242 247 246 238 226 217 215 215 217 219 221 223 226 228 231 236 238 236 236 237 239 243 247 251 254 254 255 258 259 260 266 272 278 284 287 291 297 301 306 313
265 270 269 271 270 267 267 256 244 232 227 234 242 244 242 238 232 224 218 216 214 209 203 198 191 185 181 175 171 174 183 199 226 236 242 250 253 257 256 252 250 247 242 243 243 238 240 242 238 231 221 215 214 215 217 220 223 224 226 229 236 239 237 238 239 240 242 245 249 253 255 257 258 260 261 265 270 275 278 277 279 282 284 288 293
260 269 273 279 276 262 264 259 249 236 229 231 236 241 240 234 228 221 219 217 209 203 199 192 186 185 180 178 182 188 198 212 228 239 245 250 257 267 266 261 255 248 246 246 244 236 234 236 234 230 223 215 213 214 215 218 222 224 226 228 235 239 239 239 241 242 244 246 250 253 255 257 258 260 263 265 268 271 275 275 274 273 274 277 281
267 277 282 287 277 261 259 253 245 234 231 234 234 235 233 229 226 221 217 215 207 197 194 192 189 189 186 186 190 196 207 216 227 238 247 254 264 276 279 270 261 253 251 249 246 239 231 228 227 225 224 221 213 211 212 215 220 222 223 226 233 238 238 238 241 244 247 249 252 255 257 258 259 261 263 266 268 270 272 273 273 271 270 271 273
276 287 290 291 286 269 254 247 242 233 237 243 240 234 226 224 227 222 213 211 205 194 193 193 190 190 192 194 196 202 210 220 232 243 254 261 269 277 276 269 263 260 253 249 247 247 240 230 224 219 220 224 219 211 210 213 217 220 221 226 233 237 239 240 243 246 249 253 255 258 260 260 260 260 261 264 267 269 270 269 270 271 271 270 268
274 286 290 291 284 267 249 241 236 231 240 244 241 234 222 223 226 218 211 205 197 192 192 191 188 189 188 189 196 204 216 229 240 250 262 261 263 265 264 269 260 254 249 245 247 245 242 235 228 222 219 221 219 210 207 208 212 221 225 231 238 241 245 247 248 251 253 256 257 259 261 262 262 261 261 261 263 266 267 267 267 268 268 268 268
273 283 289 293 280 263 255 244 236 232 238 238 236 231 222 226 224 214 209 198 190 189 189 185 183 184 181 183 196 208 218 231 242 253 262 259 262 258 262 279 258 246 241 233 236 225 215 222 229 232 226 222 219 208 202 203 207 218 224 232 240 242 246 249 251 255 257 257 259 261 263 264 263 263 262 261 261 263 265 266 266 265 264 264 265
280 289 290 291 280 272 265 245 237 233 236 233 227 224 224 235 225 211 204 190 188 195 198 194 187 184 183 187 201 214 221 229 242 251 254 260 264 254 261 284 269 261 240 220 211 194 192 204 212 222 220 221 223 213 202 200 203 213 218 225 236 240 244 248 251 255 257 257 258 260 262 263 264 263 263 262 261 262 263 264 264 263 261 259 259
291 298 292 290 283 281 265 249 240 228 228 223 216 219 220 226 219 202 188 179 180 184 185 186 184 186 186 192 209 225 231 230 238 244 245 255 256 247 256 270 264 266 248 223 207 195 192 193 200 208 211 216 222 217 206 200 203 212 217 219 227 236 244 247 250 254 256 259 259 259 260 262 263 262 262 263 262 261 259 259 260 260 258 257 257
300 300 288 286 279 268 259 264 257 226 217 205 201 215 214 209 211 196 176 172 158 138 131 145 163 178 184 196 217 226 231 227 230 237 243 249 247 246 254 262 265 267 249 227 220 225 218 207 204 209 211 212 218 215 203 203 212 218 226 228 229 233 241 246 248 253 255 255 256 257 259 261 263 262 261 262 261 260 257 256 256 256 256 256 257
301 290 276 273 265 258 260 276 270 220 210 202 189 197 205 193 190 171 152 148 129 128 132 139 158 182 195 210 219 223 227 224 222 227 239 245 245 243 243 257 268 263 236 213 213 231 228 215 208 213 216 213 218 212 190 201 215 218 228 234 236 233 238 245 246 250 253 252 254 255 254 255 259 260 259 259 258 258 257 256 255 254 254 254 256
292 275 265 262 258 255 266 283 257 185 185 192 170 159 165 160 157 141 133 132 126 136 147 151 169 196 212 219 219 224 226 225 226 227 237 243 240 234 225 234 249 241 218 195 203 220 224 217 206 207 214 209 211 203 176 201 209 209 218 221 229 232 236 243 241 245 247 247 252 249 246 250 261 262 257 257 257 259 260 259 258 257 256 256 256
280 265 256 269 276 213 226 232 146 146 145 148 146 143 142 141 138 133 134 132 128 138 151 164 190 210 219 224 222 222 216 223 236 235 234 231 236 236 223 218 224 231 223 198 200 204 204 211 205 202 206 200 199 189 173 194 199 200 208 208 220 229 234 235 229 237 242 244 248 247 248 258 260 256 252 255 257 261 262 259 259 260 260 260 259
270 269 261 46 230 171 180 155 124 129 131 135 142 142 143 143 135 132 140 136 133 142 143 155 190 214 222 231 232 230 223 223 234 237 230 223 229 233 227 222 215 218 227 212 198 198 196 197 203 203 196 192 193 183 175 188 192 194 201 203 211 218 226 232 231 238 244 246 247 250 270 257 239 244 245 248 249 254 258 257 258 259 261 263 263
270 289 302 130 172 157 151 144 126 126 131 136 141 141 143 146 141 139 146 146 149 154 145 146 163 190 218 234 238 240 236 229 228 229 226 214 214 220 215 215 215 207 207 202 192 201 198 190 198 195 185 191 189 179 181 185 186 190 198 204 205 207 215 229 238 241 245 250 255 273 29 203 223 237 238 242 245 248 254 256 257 259 261 263 264
257 264 222 163 161 156 148 142 130 128 135 140 143 146 147 146 146 147 149 153 157 154 139 133 134 136 189 242 244 236 226 228 231 229 222 207 203 211 203 202 210 198 186 186 184 191 186 181 188 178 176 187 181 182 187 179 179 193 200 202 200 202 209 219 229 234 247 261 280 353 53 207 212 233 234 245 255 256 259 260 259 260 262 263 264
240 224 206 160 152 158 156 148 136 134 140 145 148 151 152 149 146 146 148 150 142 124 109 102 96 98 119 210 241 234 223 222 228 226 219 207 198 201 201 203 206 192 186 189 184 184 181 184 190 179 184 189 184 190 184 167 175 193 196 197 200 207 214 218 222 227 239 258 276 287 258 252 250 250 249 267 279 278 273 265 260 258 259 260 261
242 219 187 158 152 156 157 153 144 144 146 151 155 153 152 151 146 145 146 139 128 114 106 100 91 90 98 107 121 228 228 211 205 207 209 206 195 195 201 202 201 197 201 199 188 190 190 191 194 188 188 192 193 193 181 174 182 187 189 193 202 210 217 223 226 232 237 247 259 254 249 257 263 275 283 288 295 292 279 270 268 268 268 265 260
220 186 173 163 156 155 155 151 147 150 152 152 155 154 153 151 147 143 139 131 125 116 109 103 95 90 82 80 98 134 207 190 187 195 200 197 187 192 202 194 191 196 200 201 197 199 194 190 195 191 186 192 200 194 190 194 188 185 194 199 204 208 215 226 230 236 239 245 253 251 248 255 262 270 280 289 290 273 273 285 288 285 285 280 269
195 168 171 170 161 161 157 153 153 154 152 149 151 152 151 148 142 137 131 125 118 111 106 100 92 86 78 75 76 71 88 121 160 191 199 190 177 193 211 195 187 193 194 197 198 201 197 192 194 190 187 196 203 201 200 200 195 195 204 207 207 209 215 225 230 236 243 247 249 251 256 263 267 261 260 273 269 254 269 307 309 309 311 307 297
183 171 181 180 171 171 167 164 163 158 154 152 151 151 148 144 138 133 130 124 116 110 105 99 90 82 74 68 68 70 83 108 148 196 206 193 175 192 216 207 198 193 186 191 195 199 202 198 192 190 195 199 200 207 206 203 204 204 205 206 209 215 221 225 227 231 239 245 248 254 256 254 260 265 254 240 245 245 262 315 328 340 344 344 350
173 173 193 190 175 174 173 171 166 161 160 158 156 156 152 148 144 141 140 133 122 114 106 101 92 84 78 71 71 72 77 92 120 185 214 202 180 186 204 205 202 190 183 190 197 200 203 200 195 193 196 200 204 208 209 211 211 207 206 206 207 212 219 223 223 223 227 234 246 258 250 226 215 260 274 199 198 243 283 320 322 331 351 6 17
171 173 190 187 171 167 167 165 164 166 166 166 166 163 162 161 155 154 158 145 129 119 107 101 95 87 85 81 79 78 76 81 97 123 238 232 193 188 193 199 204 198 194 196 201 207 204 198 202 202 196 202 212 213 214 219 214 208 204 201 204 212 217 221 220 222 224 223 234 248 253 248 230 242 258 254 265 280 294 306 301 311 334 351 8
173 176 186 182 173 169 171 170 173 176 173 176 176 170 176 178 170 171 171 151 133 124 109 101 95 87 84 79 79 82 76 73 80 86 187 248 227 208 203 207 208 207 206 201 201 211 207 199 205 212 208 209 219 221 221 220 211 207 202 197 206 219 217 218 222 223 224 222 228 242 266 296 291 233 218 251 277 283 288 295 296 303 305 301 313
179 179 184 185 182 179 182 183 186 189 184 180 177 175 183 183 178 179 171 152 140 130 116 105 91 77 67 62 67 76 78 73 68 61 53 266 240 225 218 216 211 209 213 211 206 208 208 201 201 209 213 214 218 224 221 213 210 208 205 204 211 218 210 210 222 226 226 228 228 239 261 285 286 265 242 244 266 277 294 307 298 268 257 268 281
180 182 184 188 188 185 187 189 188 193 194 188 185 185 180 175 178 181 170 159 156 144 128 107 57 43 29 36 51 57 68 75 70 58 42 19 261 225 218 219 222 220 217 215 213 211 209 209 211 209 206 207 215 225 222 210 211 213 212 215 214 211 207 205 217 225 228 232 231 236 245 247 262 276 274 263 265 311 14 49 134 160 215 248 253
177 181 184 183 185 187 191 197 197 199 198 198 201 199 183 181 185 182 175 174 175 180 183 289 342 352 346 351 11 22 32 45 60 63 45 23 354 284 231 218 226 230 229 224 216 216 219 222 227 222 212 209 210 220 224 216 217 218 218 221 213 204 205 204 208 216 223 227 226 231 237 244 253 262 271 273 332 73 87 104 126 129 135 179 241
177 179 182 182 184 191 198 204 210 209 205 205 209 207 202 204 203 192 192 195 196 223 260 299 321 326 323 322 326 333 346 356 24 56 49 28 359 322 289 230 216 219 229 233 226 223 228 232 236 233 225 218 208 210 222 224 222 220 219 220 211 202 205 206 203 204 212 217 217 224 229 238 248 251 263 277 41 85 107 106 102 119 117 93 72
182 181 180 181 186 195 204 211 214 214 215 215 214 215 217 219 216 209 209 209 215 242 274 297 308 312 309 308 311 310 317 324 326 0 40 34 11 345 318 277 229 197 206 220 227 226 229 233 234 231 228 228 223 217 223 227 223 218 216 213 205 199 195 196 200 195 194 200 206 220 226 227 227 227 242 260 86 98 114 110 88 112 114 93 87
Height
3155 3156 3156 3157 3158 3159 3159 3160 3161 3163 3163 3164 3165 3165 3166 3166 3167 3167 3167 3168 3168 3169 3169 3169 3169 3169 3169 3169 3168 3168 3168 3169 3169 3169 3170 3171 3171 3172 3173 3174 3174 3175 3175 3176 3177 3177 3178 3179 3179 3180 3180 3180 3180 3180 3180 3180 3180 3180 3180 3179 3179 3179 3178 3178 3177 3177 3176 3176 3175 3173 3172 3172 3171 3169 3168 3167 3166 3165 3165 3164 3163 3163 3163 3162 3162
3154 3154 3155 3156 3157 3158 3159 3160 3161 3162 3163 3163 3164 3164 3165 3165 3166 3167 3167 3167 3168 3169 3169 3169 3169 3169 3169 3169 3169 3168 3168 3169 3169 3169 3170 3171 3172 3172 3173 3174 3174 3175 3176 3177 3177 3178 3179 3179 3180 3181 3181 3181 3181 3181 3181 3181 3181 3181 3181 3181 3181 3180 3180 3179 3179 3178 3178 3177 3176 3175 3174 3173 3172 3171 3170 3169 3168 3167 3166 3166 3165 3165 3164 3164 3164
3152 3154 3154 3155 3156 3157 3158 3159 3160 3161 3162 3162 3163 3164 3165 3165 3166 3166 3167 3167 3167 3168 3168 3168 3169 3169 3169 3169 3169 3169 3169 3169 3169 3169 3170 3171 3172 3173 3173 3174 3175 3176 3176 3177 3178 3178 3179 3180 3181 3181 3182 3182 3182 3182 3182 3182 3182 3182 3182 3182 3182 3182 3181 3181 3180 3180 3179 3179 3178 3177 3175 3174 3174 3174 3173 3171 3170 3169 3169 3168 3167 3167 3166 3166 3166
3152 3153 3154 3155 3156 3157 3157 3158 3159 3160 3161 3162 3163 3163 3164 3164 3165 3166 3166 3166 3166 3167 3167 3168 3168 3169 3169 3169 3169 3169 3169 3169 3169 3169 3170 3171 3172 3173 3173 3174 3175 3176 3177 3177 3178 3179 3180 3180 3181 3182 3182 3183 3183 3183 3183 3183 3183 3183 3183 3183 3183 3183 3182 3182 3182 3181 3181 3180 3179 3178 3177 3176 3176 3176 3175 3174 3172 3171 3171 3170 3169 3168 3168 3168 3168
3152 3152 3153 3154 3155 3156 3156 3157 3159 3159 3160 3161 3162 3162 3163 3164 3164 3165 3165 3165 3165 3166 3167 3168 3168 3169 3169 3169 3169 3169 3169 3169 3169 3170 3170 3170 3171 3172 3173 3174 3175 3176 3177 3178 3179 3179 3180 3181 3182 3182 3183 3183 3184 3184 3184 3184 3184 3184 3184 3184 3184 3184 3184 3184 3184 3183 3183 3182 3181 3180 3179 3178 3178 3178 3177 3176 3175 3174 3173 3172 3171 3171 3170 3170 3170
3151 3151 3152 3153 3154 3155 3156 3157 3158 3159 3160 3160 3161 3161 3162 3163 3163 3163 3164 3164 3165 3165 3166 3167 3168 3169 3169 3169 3169 3169 3169 3169 3169 3170 3170 3170 3171 3172 3173 3174 3175 3176 3177 3178 3179 3180 3181 3181 3182 3183 3184 3184 3184 3184 3185 3185 3185 3185 3185 3185 3185 3185 3185 3185 3185 3185 3184 3183 3183 3182 3180 3180 3180 3180 3179 3179 3177 3176 3175 3174 3174 3173 3172 3172 3172
3151 3151 3152 3153 3153 3155 3156 3156 3157 3158 3159 3159 3160 3161 3161 3162 3162 3162 3163 3163 3164 3165 3166 3167 3167 3168 3169 3169 3169 3169 3169 3169 3169 3170 3170 3170 3171 3171 3172 3174 3175 3176 3178 3179 3180 3180 3181 3182 3183 3184 3184 3185 3185 3185 3186 3186 3186 3186 3186 3186 3186 3186 3186 3186 3186 3186 3185 3185 3184 3183 3182 3182 3182 3182 3181 3181 3180 3179 3178 3177 3176 3175 3175 3174 3174
3150 3151 3152 3152 3153 3154 3155 3156 3157 3157 3158 3159 3159 3160 3160 3161 3161 3162 3162 3163 3163 3164 3165 3166 3167 3167 3168 3168 3169 3169 3168 3169 3169 3170 3170 3170 3170 3171 3172 3174 3175 3176 3178 3179 3180 3181 3181 3182 3183 3184 3185 3185 3185 3186 3186 3186 3187 3187 3187 3187 3187 3187 3187 3187 3187 3187 3187 3186 3186 3185 3184 3184 3184 3184 3184 3183 3182 3181 3180 3180 3179 3178 3177 3177 3176
3151 3151 3152 3152 3153 3154 3155 3156 3156 3157 3157 3158 3158 3159 3159 3160 3160 3161 3161 3162 3163 3163 3164 3165 3166 3167 3168 3168 3168 3168 3168 3168 3169 3169 3170 3170 3171 3171 3172 3174 3175 3177 3178 3179 3180 3181 3182 3183 3183 3184 3185 3185 3185 3186 3186 3187 3187 3187 3188 3188 3188 3188 3188 3188 3189 3189 3188 3188 3187 3186 3186 3186 3186 3186 3186 3185 3185 3183 3183 3182 3181 3181 3180 3179 3179
3151 3152 3152 3152 3153 3153 3154 3155 3155 3156 3156 3157 3157 3158 3159 3159 3159 3160 3161 3161 3162 3162 3163 3164 3165 3166 3167 3167 3168 3168 3168 3168 3169 3169 3170 3170 3171 3171 3172 3174 3175 3177 3178 3178 3179 3180 3181 3182 3183 3184 3185 3185 3186 3186 3187 3187 3187 3188 3188 3188 3188 3189 3189 3190 3190 3190 3190 3189 3188 3188 3188 3188 3188 3188 3188 3187 3186 3186 3185 3184 3184 3183 3183 3182 3181
3151 3152 3152 3152 3153 3153 3154 3154 3155 3155 3155 3156 3156 3157 3158 3158 3159 3159 3160 3161 3161 3162 3163 3164 3165 3166 3166 3167 3167 3167 3167 3168 3169 3169 3170 3170 3171 3172 3172 3173 3175 3176 3177 3178 3179 3180 3181 3182 3183 3184 3185 3186 3186 3186 3187 3187 3188 3188 3189 3189 3189 3189 3190 3190 3191 3191 3191 3190 3189 3190 3190 3190 3189 3190 3190 3189 3188 3188 3187 3187 3186 3186 3185 3185 3184
3151 3152 3152 3153 3153 3153 3153 3154 3154 3154 3154 3155 3155 3156 3157 3157 3158 3159 3159 3160 3160 3161 3162 3163 3164 3165 3166 3166 3166 3167 3167 3168 3168 3169 3170 3170 3171 3172 3172 3173 3174 3176 3177 3178 3179 3181 3181 3182 3183 3184 3185 3186 3186 3187 3187 3187 3188 3188 3189 3189 3190 3190 3190 3191 3192 3192 3192 3191 3191 3191 3191 3191 3191 3191 3191 3191 3190 3190 3189 3189 3188 3188 3187 3187 3186
3151 3152 3153 3153 3153 3153 3153 3153 3153 3153 3153 3153 3154 3155 3156 3157 3157 3158 3158 3159 3160 3160 3161 3162 3164 3164 3165 3165 3166 3166 3167 3167 3168 3169 3169 3170 3171 3172 3172 3173 3174 3175 3176 3178 3179 3180 3181 3182 3183 3184 3185 3186 3187 3187 3188 3188 3188 3189 3189 3190 3190 3191 3191 3192 3193 3193 3193 3192 3193 3193 3193 3193 3193 3193 3193 3192 3192 3192 3191 3191 3190 3190 3189 3189 3188
3151 3152 3153 3153 3153 3153 3153 3153 3152 3152 3153 3153 3153 3154 3155 3156 3156 3157 3157 3158 3159 3159 3160 3162 3163 3163 3164 3165 3165 3166 3166 3167 3167 3169 3169 3170 3171 3171 3172 3173 3174 3175 3176 3177 3178 3180 3181 3182 3183 3184 3185 3186 3187 3188 3188 3189 3189 3189 3190 3190 3191 3191 3191 3192 3193 3194 3194 3194 3194 3194 3194 3194 3194 3194 3194 3194 3194 3193 3193 3193 3193 3192 3191 3191 3190
3151 3152 3153 3153 3153 3153 3152 3152 3152 3152 3152 3152 3153 3153 3154 3154 3155 3156 3156 3157 3158 3159 3160 3161 3161 3162 3163 3164 3165 3166 3166 3166 3167 3168 3169 3170 3171 3171 3172 3173 3174 3174 3175 3176 3177 3179 3180 3181 3182 3183 3184 3186 3187 3188 3188 3189 3189 3189 3190 3191 3191 3191 3192 3193 3194 3195 3195 3195 3195 3195 3195 3195 3195 3195 3195 3195 3195 3195 3195 3195 3194 3194 3193 3193 3192
3150 3151 3152 3152 3152 3152 3151 3151 3151 3151 3151 3151 3151 3152 3153 3153 3154 3155 3155 3156 3157 3158 3158 3159 3160 3161 3162 3163 3164 3165 3166 3166 3167 3168 3169 3170 3170 3171 3172 3173 3173 3174 3175 3175 3176 3177 3179 3180 3181 3182 3184 3185 3186 3187 3188 3189 3189 3189 3190 3191 3191 3191 3192 3193 3194 3195 3195 3195 3195 3196 3196 3196 3196 3196 3196 3196 3196 3196 3196 3196 3196 3196 3195 3194 3194
3150 3150 3151 3151 3150 3150 3150 3150 3150 3149 3149 3149 3150 3151 3151 3152 3153 3153 3154 3155 3156 3156 3157 3158 3159 3160 3162 3163 3164 3164 3166 3166 3167 3168 3169 3170 3170 3171 3171 3172 3173 3173 3174 3175 3175 3176 3178 3179 3180 3181 3183 3184 3186 3187 3188 3188 3189 3189 3190 3191 3191 3191 3192 3193 3194 3195 3196 3196 3196 3196 3196 3196 3197 3197 3197 3197 3197 3197 3197 3197 3197 3197 3196 3196 3196
3149 3149 3149 3149 3149 3149 3148 3148 3148 3148 3147 3147 3148 3149 3150 3150 3151 3152 3153 3154 3154 3155 3156 3157 3158 3160 3161 3162 3163 3164 3165 3166 3167 3168 3169 3170 3170 3170 3171 3171 3172 3173 3173 3174 3175 3176 3176 3178 3179 3180 3182 3183 3185 3186 3187 3188 3188 3189 3190 3190 3190 3190 3192 3194 3194 3195 3196 3196 3196 3196 3197 3197 3197 3197 3198 3198 3198 3198 3198 3198 3198 3198 3197 3197 3197
3147 3147 3147 3147 3147 3147 3147 3147 3146 3145 3145 3146 3147 3147 3148 3149 3150 3151 3152 3153 3153 3154 3155 3156 3158 3160 3161 3162 3163 3164 3165 3167 3167 3168 3169 3170 3170 3170 3170 3171 3171 3172 3173 3174 3174 3175 3176 3177 3178 3179 3181 3182 3183 3185 3186 3187 3187 3188 3189 3190 3190 3190 3192 3194 3194 3195 3196 3197 3197 3197 3197 3197 3197 3198 3198 3198 3198 3198 3198 3198 3198 3198 3198 3198 3198
3145 3145 3146 3146 3146 3146 3146 3146 3145 3144 3144 3144 3145 3146 3146 3148 3149 3150 3151 3151 3152 3153 3154 3156 3158 3159 3160 3161 3163 3164 3165 3166 3167 3168 3169 3170 3170 3170 3170 3170 3171 3171 3172 3173 3174 3174 3175 3175 3177 3178 3179 3181 3182 3183 3184 3185 3186 3187 3188 3189 3189 3189 3192 3193 3194 3195 3196 3196 3197 3197 3197 3197 3197 3198 3198 3198 3198 3199 3199 3199 3199 3199 3199 3199 3199
3143 3144 3144 3144 3144 3145 3145 3145 3144 3143 3143 3143 3143 3144 3145 3146 3147 3148 3149 3150 3151 3152 3154 3156 3157 3158 3160 3161 3162 3164 3165 3165 3166 3168 3169 3170 3170 3170 3170 3170 3170 3171 3171 3172 3173 3173 3174 3175 3176 3177 3178 3179 3181 3182 3183 3184 3185 3186 3187 3188 3188 3189 3192 3193 3193 3195 3195 3196 3196 3197 3197 3197 3197 3197 3198 3198 3198 3198 3199 3199 3199 3199 3199 3199 3199
3142 3142 3142 3142 3143 3144 3144 3144 3143 3142 3142 3142 3142 3143 3144 3145 3146 3147 3148 3149 3150 3152 3154 3155 3156 3158 3160 3161 3162 3163 3164 3165 3166 3168 3168 3170 3170 3170 3169 3169 3170 3170 3171 3171 3172 3173 3173 3174 3175 3176 3177 3178 3180 3181 3182 3183 3184 3185 3186 3186 3186 3188 3191 3192 3193 3194 3195 3195 3195 3196 3196 3196 3197 3197 3198 3198 3198 3198 3198 3199 3199 3199 3199 3199 3199
3141 3141 3140 3141 3142 3143 3143 3143 3142 3142 3142 3141 3142 3143 3143 3144 3145 3146 3148 3148 3150 3152 3154 3155 3156 3158 3160 3161 3162 3163 3163 3165 3166 3168 3169 3170 3170 3169 3169 3169 3169 3169 3170 3171 3172 3172 3173 3173 3174 3174 3176 3177 3178 3179 3181 3182 3182 3183 3184 3185 3185 3186 3189 3190 3192 3193 3193 3194 3194 3194 3195 3195 3196 3197 3197 3197 3197 3198 3198 3198 3198 3199 3199 3199 3199
3140 3139 3139 3140 3141 3142 3142 3142 3142 3142 3141 3141 3141 3142 3143 3144 3144 3146 3147 3148 3150 3153 3154 3155 3157 3159 3160 3161 3162 3163 3163 3165 3167 3169 3170 3170 3169 3168 3168 3168 3169 3169 3169 3170 3171 3172 3172 3172 3173 3174 3175 3175 3176 3178 3179 3180 3181 3182 3183 3184 3183 3184 3187 3189 3190 3192 3192 3192 3193 3194 3194 3195 3195 3196 3196 3197 3197 3197 3197 3197 3198 3198 3198 3198 3199
3138 3138 3138 3139 3140 3142 3141 3141 3142 3141 3141 3141 3141 3141 3142 3143 3144 3145 3147 3148 3151 3153 3154 3156 3157 3159 3160 3161 3162 3163 3164 3166 3168 3169 3170 3169 3168 3168 3168 3168 3168 3168 3169 3169 3170 3171 3172 3172 3172 3173 3174 3174 3175 3176 3178 3179 3180 3181 3182 3183 3182 3182 3186 3188 3189 3190 3191 3191 3192 3193 3193 3194 3194 3195 3195 3196 3196 3196 3196 3196 3197 3197 3197 3198 3198
3137 3137 3137 3138 3139 3140 3140 3140 3141 3141 3141 3141 3141 3141 3141 3142 3144 3145 3147 3149 3151 3153 3155 3156 3157 3158 3159 3160 3162 3163 3165 3167 3168 3169 3169 3168 3168 3168 3167 3167 3167 3168 3168 3169 3170 3170 3171 3172 3172 3172 3173 3173 3174 3175 3177 3178 3179 3180 3181 3181 3180 3181 3184 3186 3187 3188 3189 3190 3191 3192 3192 3193 3194 3194 3194 3195 3195 3195 3195 3195 3196 3196 3196 3197 3197
3135 3136 3136 3137 3138 3139 3139 3140 3140 3140 3141 3140 3140 3140 3141 3143 3143 3144 3146 3149 3151 3153 3154 3155 3156 3157 3159 3161 3162 3163 3165 3167 3168 3168 3167 3167 3167 3167 3167 3167 3167 3168 3168 3168 3169 3170 3171 3171 3171 3171 3172 3173 3173 3174 3176 3177 3178 3179 3179 3179 3179 3180 3183 3185 3187 3188 3188 3189 3190 3190 3191 3192 3192 3193 3193 3193 3194 3194 3194 3195 3195 3195 3195 3196 3196
3133 3134 3134 3135 3136 3137 3138 3138 3139 3139 3139 3139 3139 3140 3142 3143 3143 3144 3146 3149 3151 3152 3154 3154 3156 3158 3160 3161 3162 3164 3166 3167 3167 3167 3166 3166 3166 3166 3166 3166 3167 3167 3168 3168 3169 3170 3170 3171 3170 3170 3171 3172 3173 3174 3175 3176 3176 3177 3178 3179 3180 3182 3183 3185 3186 3187 3188 3188 3189 3189 3190 3190 3191 3191 3191 3192 3192 3193 3193 3194 3194 3194 3194 3195 3195
3132 3133 3133 3134 3134 3135 3136 3136 3137 3137 3137 3138 3140 3142 3144 3144 3144 3147 3148 3149 3151 3152 3153 3155 3157 3158 3160 3161 3162 3164 3165 3166 3166 3166 3165 3165 3165 3166 3166 3166 3167 3167 3167 3168 3169 3169 3170 3170 3170 3170 3171 3171 3172 3173 3173 3174 3176 3177 3178 3179 3180 3182 3183 3184 3185 3186 3187 3187 3187 3188 3188 3188 3188 3189 3190 3190 3191 3192 3192 3193 3193 3193 3193 3193 3194
3131 3133 3133 3133 3133 3134 3134 3134 3135 3136 3137 3138 3140 3142 3143 3143 3145 3147 3148 3150 3151 3152 3152 3155 3157 3159 3160 3161 3162 3164 3165 3165 3165 3165 3165 3165 3165 3165 3166 3166 3166 3166 3167 3168 3169 3169 3169 3169 3170 3171 3171 3171 3172 3172 3170 3172 3175 3176 3177 3178 3179 3180 3181 3183 3184 3185 3185 3185 3186 3186 3186 3186 3186 3187 3188 3189 3190 3190 3191 3191 3191 3191 3192 3192 3192
3131 3133 3132 3132 3132 3133 3132 3132 3134 3136 3137 3137 3139 3140 3142 3143 3145 3147 3149 3150 3151 3152 3152 3154 3157 3159 3160 3161 3162 3163 3164 3164 3164 3164 3164 3164 3165 3165 3166 3166 3166 3166 3167 3168 3168 3168 3168 3169 3169 3170 3171 3171 3171 3171 3169 3170 3173 3174 3176 3178 3179 3180 3181 3182 3183 3183 3183 3184 3184 3184 3184 3184 3184 3185 3186 3187 3188 3189 3189 3189 3189 3189 3190 3190 3191
3131 3132 3132 3131 3131 3131 3131 3131 3133 3134 3135 3136 3137 3139 3141 3143 3145 3147 3149 3151 3152 3152 3153 3155 3158 3159 3160 3160 3161 3162 3163 3163 3163 3164 3164 3164 3164 3165 3165 3165 3165 3166 3166 3167 3167 3167 3168 3169 3170 3170 3171 3171 3171 3172 3170 3170 3172 3174 3176 3178 3179 3180 3180 3181 3182 3182 3182 3182 3182 3182 3181 3182 3183 3185 3186 3186 3186 3186 3187 3187 3187 3188 3188 3189 3189
3131 3131 3130 3130 3131 3131 3131 3132 3132 3133 3134 3134 3136 3138 3140 3142 3145 3147 3149 3152 3153 3153 3154 3156 3157 3158 3159 3160 3161 3161 3161 3162 3163 3163 3164 3163 3164 3164 3165 3165 3165 3165 3165 3166 3167 3167 3167 3169 3170 3170 3170 3171 3172 3173 3172 3171 3173 3174 3175 3177 3178 3178 3178 3179 3180 3180 3180 3180 3180 3179 3179 3180 3183 3185 3185 3185 3184 3184 3185 3186 3186 3186 3186 3187 3188
3130 3129 3129 3130 3132 3132 3132 3132 3132 3133 3135 3136 3137 3139 3140 3142 3145 3147 3149 3152 3154 3155 3155 3156 3157 3158 3158 3158 3159 3160 3160 3161 3162 3162 3163 3163 3163 3164 3164 3165 3165 3165 3165 3165 3166 3167 3168 3168 3169 3170 3170 3171 3173 3173 3172 3173 3174 3175 3176 3176 3177 3177 3177 3178 3179 3180 3179 3179 3178 3176 3177 3182 3185 3184 3183 3183 3183 3184 3184 3184 3184 3185 3185 3185 3186
3129 3129 3130 3132 3133 3132 3132 3132 3133 3133 3135 3136 3137 3139 3140 3142 3144 3147 3149 3152 3153 3155 3155 3155 3157 3157 3157 3157 3158 3158 3159 3160 3160 3161 3162 3163 3163 3163 3164 3165 3165 3164 3165 3165 3166 3167 3168 3169 3169 3169 3170 3171 3173 3173 3172 3173 3174 3175 3176 3176 3177 3177 3177 3178 3179 3179 3179 3177 3174 3174 3180 3185 3185 3182 3182 3182 3182 3183 3183 3183 3183 3183 3184 3184 3184
3129 3131 3133 3134 3133 3132 3132 3133 3133 3134 3135 3136 3137 3139 3141 3143 3145 3147 3149 3150 3152 3154 3155 3155 3156 3156 3155 3155 3155 3156 3157 3158 3159 3160 3161 3162 3162 3163 3163 3164 3164 3164 3164 3165 3166 3167 3168 3168 3168 3169 3169 3170 3173 3173 3172 3173 3174 3175 3176 3176 3177 3178 3177 3178 3178 3178 3178 3175 3172 3176 3183 3185 3182 3180 3181 3181 3181 3181 3181 3181 3181 3181 3182 3182 3183
3131 3133 3134 3134 3133 3132 3133 3133 3134 3135 3136 3137 3138 3140 3141 3143 3145 3147 3148 3149 3150 3152 3153 3154 3154 3154 3154 3154 3153 3154 3155 3157 3158 3158 3159 3160 3161 3162 3162 3163 3162 3163 3164 3164 3165 3166 3167 3167 3168 3169 3170 3170 3172 3174 3174 3173 3174 3175 3175 3176 3177 3177 3178 3177 3177 3177 3176 3173 3173 3179 3183 3182 3180 3180 3180 3180 3180 3180 3180 3180 3180 3180 3180 3181 3181
3132 3133 3133 3133 3133 3133 3133 3133 3135 3136 3137 3138 3139 3141 3142 3143 3145 3146 3147 3148 3149 3150 3151 3152 3152 3153 3153 3152 3152 3153 3154 3155 3156 3157 3157 3159 3160 3160 3161 3161 3161 3162 3163 3164 3164 3165 3165 3166 3167 3168 3169 3170 3172 3174 3175 3174 3174 3175 3175 3175 3176 3176 3177 3177 3177 3177 3176 3173 3175 3180 3180 3179 3179 3179 3179 3179 3179 3179 3179 3179 3179 3179 3179 3179 3179
3132 3133 3132 3132 3133 3133 3133 3134 3135 3136 3138 3139 3141 3142 3142 3144 3145 3146 3147 3148 3149 3149 3150 3150 3151 3152 3152 3152 3152 3152 3153 3154 3154 3155 3156 3157 3158 3159 3159 3160 3161 3162 3162 3163 3163 3163 3164 3165 3167 3168 3169 3170 3171 3173 3174 3173 3173 3174 3174 3175 3175 3176 3176 3177 3177 3177 3176 3175 3176 3179 3179 3178 3178 3178 3178 3178 3178 3178 3178 3178 3177 3178 3178 3177 3177
3132 3132 3132 3132 3133 3133 3134 3135 3136 3137 3138 3139 3141 3142 3143 3144 3145 3146 3147 3148 3149 3150 3150 3150 3151 3152 3152 3152 3152 3152 3152 3153 3153 3154 3155 3156 3157 3157 3158 3160 3160 3161 3161 3162 3162 3162 3164 3165 3166 3168 3169 3169 3170 3171 3172 3173 3173 3173 3174 3175 3175 3175 3175 3176 3176 3176 3176 3176 3176 3178 3178 3177 3177 3177 3177 3177 3177 3177 3176 3176 3176 3176 3176 3176 3175
3131 3131 3131 3132 3133 3134 3135 3136 3137 3138 3139 3140 3141 3142 3144 3145 3146 3147 3148 3149 3150 3150 3151 3151 3152 3152 3152 3152 3152 3152 3153 3153 3153 3153 3154 3155 3156 3157 3157 3158 3159 3160 3161 3161 3162 3162 3163 3164 3165 3167 3168 3169 3169 3170 3171 3172 3173 3173 3174 3174 3175 3175 3175 3174 3175 3176 3176 3176 3176 3176 3177 3177 3177 3177 3177 3177 3177 3176 3175 3175 3175 3175 3174 3174 3173
3129 3130 3130 3131 3133 3134 3135 3137 3138 3139 3140 3141 3142 3143 3145 3146 3148 3149 3150 3150 3151 3151 3152 3152 3153 3153 3152 3153 3153 3153 3154 3154 3154 3153 3153 3154 3155 3156 3156 3157 3158 3159 3160 3160 3161 3162 3163 3163 3165 3166 3168 3168 3168 3169 3170 3172 3172 3173 3173 3174 3174 3174 3174 3174 3175 3175 3175 3175 3175 3175 3176 3175 3175 3176 3177 3176 3176 3175 3175 3175 3174 3174 3173 3173 3172
3129 3129 3130 3131 3132 3134 3135 3137 3139 3140 3141 3142 3143 3145 3146 3147 3149 3150 3151 3151 3151 3152 3153 3153 3153 3153 3153 3153 3154 3154 3154 3154 3154 3153 3153 3154 3155 3155 3155 3156 3157 3158 3158 3158 3159 3161 3162 3162 3164 3165 3166 3167 3168 3168 3170 3171 3172 3172 3173 3173 3174 3174 3174 3174 3175 3175 3174 3174 3174 3174 3175 3175 3175 3175 3176 3176 3175 3175 3175 3174 3174 3173 3173 3172 3171
3128 3129 3130 3131 3132 3134 3135 3137 3139 3141 3142 3143 3145 3146 3147 3148 3149 3150 3152 3152 3152 3152 3153 3153 3153 3153 3153 3154 3154 3155 3155 3154 3154 3153 3152 3153 3154 3154 3154 3155 3156 3157 3158 3158 3158 3159 3161 3161 3163 3164 3165 3166 3167 3168 3169 3170 3170 3171 3172 3173 3173 3173 3173 3174 3174 3173 3173 3172 3172 3173 3173 3174 3175 3174 3175 3175 3175 3175 3174 3174 3173 3173 3172 3172 3171
3128 3128 3129 3130 3132 3134 3136 3138 3139 3141 3143 3144 3145 3147 3148 3149 3149 3150 3152 3152 3152 3152 3153 3153 3153 3153 3154 3154 3155 3155 3155 3155 3154 3153 3152 3152 3153 3153 3154 3154 3155 3156 3157 3157 3158 3158 3160 3161 3162 3163 3165 3165 3166 3167 3168 3169 3169 3170 3171 3172 3172 3172 3172 3172 3172 3172 3172 3172 3171 3171 3171 3173 3174 3175 3174 3174 3174 3174 3174 3173 3173 3172 3172 3172 3171
3127 3128 3129 3130 3133 3135 3137 3138 3140 3141 3142 3144 3146 3147 3149 3149 3150 3150 3151 3151 3151 3152 3152 3153 3153 3153 3153 3154 3154 3155 3155 3155 3154 3153 3152 3151 3152 3153 3153 3153 3154 3155 3156 3157 3157 3157 3159 3161 3161 3162 3163 3164 3165 3165 3167 3167 3168 3169 3170 3170 3171 3171 3171 3171 3171 3171 3172 3172 3171 3171 3171 3172 3173 3174 3174 3174 3173 3173 3173 3172 3172 3172 3172 3171 3171
3126 3128 3129 3131 3133 3135 3137 3138 3140 3141 3142 3144 3146 3147 3148 3149 3150 3151 3151 3151 3151 3151 3151 3152 3153 3153 3153 3153 3153 3154 3154 3154 3154 3153 3152 3151 3151 3152 3152 3152 3153 3153 3154 3155 3156 3157 3158 3160 3161 3162 3163 3163 3163 3164 3166 3166 3167 3168 3168 3169 3169 3170 3170 3170 3170 3171 3172 3172 3172 3171 3171 3172 3172 3171 3173 3174 3173 3173 3173 3172 3172 3171 3170 3170 3170
3126 3128 3130 3131 3133 3135 3136 3138 3139 3141 3142 3144 3145 3147 3148 3148 3150 3150 3150 3150 3150 3151 3151 3152 3152 3152 3153 3153 3153 3153 3153 3154 3153 3153 3152 3151 3151 3151 3151 3151 3152 3153 3153 3154 3155 3156 3158 3159 3160 3161 3162 3163 3162 3163 3164 3165 3166 3167 3167 3168 3168 3169 3169 3170 3170 3170 3171 3171 3172 3171 3171 3172 3171 3170 3171 3172 3173 3173 3172 3171 3170 3170 3170 3169 3169
3126 3128 3130 3131 3133 3134 3136 3137 3138 3140 3141 3143 3144 3145 3146 3148 3149 3150 3150 3150 3150 3150 3151 3151 3151 3152 3152 3152 3152 3152 3152 3152 3152 3152 3151 3151 3150 3150 3150 3151 3151 3152 3153 3154 3154 3155 3157 3158 3158 3160 3161 3162 3162 3162 3162 3164 3165 3165 3166 3167 3168 3168 3168 3169 3169 3170 3170 3170 3171 3171 3171 3171 3170 3170 3169 3170 3172 3172 3171 3170 3170 3170 3169 3169 3168
3126 3127 3128 3130 3131 3133 3134 3136 3137 3138 3139 3141 3142 3144 3145 3147 3148 3148 3149 3150 3150 3150 3151 3151 3151 3151 3151 3151 3151 3151 3151 3151 3151 3151 3151 3150 3150 3150 3150 3150 3151 3152 3152 3152 3153 3155 3156 3157 3157 3158 3159 3160 3161 3161 3161 3162 3163 3164 3165 3166 3166 3167 3167 3168 3168 3169 3169 3169 3170 3170 3170 3170 3170 3169 3169 3169 3171 3172 3170 3169 3169 3169 3169 3168 3168
3125 3126 3126 3128 3130 3131 3133 3134 3135 3137 3138 3139 3141 3142 3144 3145 3146 3147 3148 3149 3150 3150 3150 3150 3150 3150 3150 3150 3150 3150 3150 3150 3150 3151 3150 3150 3150 3149 3149 3149 3150 3151 3152 3152 3152 3154 3155 3156 3156 3156 3157 3158 3159 3161 3161 3162 3162 3163 3164 3165 3165 3166 3166 3167 3167 3169 3169 3169 3169 3169 3169 3169 3169 3169 3169 3168 3170 3171 3170 3168 3168 3169 3168 3168 3168